This demonstration page uses our WeatherBlox Daily Observations layout. Learn more.

Left ArrowRight Arrow

39.12711, -84.51439

Hourly Observations for August 24, 2016

Temp ( °F °C ) Dew Point ( °F °C ) Humidity (%) Winds ( mph kmh ) Pressure ( in mb ) Visibility ( mi km ) Precip ( " mm )
12:53 am 00:53 Clear 64 17.8 64 17.8 100 100 N N/A 30.20 1023 10 16 N/A
1:53 am 01:53 Clear 64 17.8 64 17.8 100 100 N N/A 30.20 1023 10 16 N/A
2:53 am 02:53 Clear 64 17.8 64 17.8 100 100 N N/A 30.19 1022 10 16 N/A
3:53 am 03:53 Clear 64 17.8 64 17.8 100 100 N N/A 30.17 1022 9 14 N/A
4:53 am 04:53 Clear 64 17.8 64 17.8 100 100 N N/A 30.19 1022 10 16 N/A
5:53 am 05:53 Clear 64 17.8 64 17.8 100 100 NE 3 6 30.18 1022 10 16 N/A
6:53 am 06:53 Clear 64 17.8 64 17.8 100 100 N N/A 30.19 1022 10 16 N/A
7:53 am 07:53 Sunny 66 18.9 65 18.3 96 96 N N/A 30.20 1023 10 16 N/A
8:53 am 08:53 Sunny 69 20.6 67 19.4 93 93 N N/A 30.20 1023 10 16 N/A
9:53 am 09:53 Sunny 72 22.2 67 19.4 84 84 SSW 5 7 30.19 1022 10 16 N/A
10:53 am 10:53 Sunny 75 23.9 68 20 79 79 S 7 11 30.19 1022 10 16 N/A
11:53 am 11:53 Mostly Sunny 79 26.1 71 21.7 77 77 S 9 15 30.17 1022 10 16 N/A
12:53 pm 12:53 Mostly Sunny 84 28.9 74 23.3 72 72 S 9 15 30.14 1021 10 16 N/A
1:53 pm 13:53 Mostly Cloudy 84 28.9 73 22.8 70 70 S 12 19 30.12 1020 10 16 N/A
2:53 pm 14:53 Mostly Cloudy 84 28.9 74 23.3 72 72 SSW 12 19 30.10 1019 10 16 N/A
3:53 pm 15:53 Partly Cloudy 86 30 75 23.9 70 70 S 9 15 30.08 1019 10 16 N/A
4:53 pm 16:53 Mostly Cloudy 85 29.4 74 23.3 70 70 S 8 13 30.07 1018 10 16 N/A
5:53 pm 17:53 Sunny 83 28.3 74 23.3 74 74 S 8 13 30.06 1018 10 16 N/A
6:53 pm 18:53 Sunny 81 27.2 74 23.3 79 79 SSW 6 9 30.05 1018 10 16 N/A
7:53 pm 19:53 Sunny 80 26.7 74 23.3 82 82 SSW 7 11 30.04 1017 10 16 N/A
8:53 pm 20:53 Mostly Clear 81 27.2 73 22.8 77 77 SSW 9 15 30.03 1017 10 16 N/A
9:53 pm 21:53 Partly Cloudy 80 26.7 73 22.8 79 79 SSW 10 17 30.04 1017 10 16 N/A
10:53 pm 22:53 Mostly Clear 81 27.2 73 22.8 77 77 SSW 12 19 30.05 1018 10 16 N/A
11:53 pm 23:53 Clear 80 26.7 73 22.8 79 79 SSW 10 17 30.04 1017 10 16 N/A

Powered by AerisWeather